Corsicana, TX

4:25 AM CDT on May 25, 2017 (GMT -0500)
Campbell-Corsicana Municipal

Weather History for KCRS - October, 2013

Change the Weather History Date:

Tuesday, October 22, 2013

  Actual Average (KTYR) Record (KTYR)
Temperature  
Mean Temperature 62 °F -  
Max Temperature 75 °F 73 °F 96 °F (1939)
Min Temperature 48 °F 53 °F 33 °F (1910)
Degree Days  
Heating Degree Days 4    
Growing Degree Days 12 (Base 50)    
Moisture  
Dew Point 45 °F    
Average Humidity 63    
Maximum Humidity 89    
Minimum Humidity 27    
Precipitation  
Precipitation 0.00 in - - ()
Sea Level Pressure  
Sea Level Pressure 30.11 in    
Wind  
Wind Speed 8 mph (NW)    
Max Wind Speed 12 mph    
Max Gust Speed -    
Visibility 9 miles    
Events      
Averages and records for this station are not official NWS values.
T = Trace of Precipitation, MM = Missing Value Source: NWS Daily Summary

Daily Weather History Graph

Daily Weather History Graph

Search for Another Location

Airport or City:

Trip Planner

Search our weather history database for the weather conditions in past years. The results will help you decide how hot, cold, wet, or windy it might be!

Date:

Astronomy

Oct. 22, 2013 Rise Set
Actual Time 7:34 AM CDT 6:45 PM CDT
Civil Twilight 7:09 AM CDT 7:09 PM CDT
Nautical Twilight 6:41 AM CDT 7:38 PM CDT
Astronomical Twilight 6:12 AM CDT 8:06 PM CDT
Moon 9:35 PM CDT (10/22) 10:54 AM CDT (10/22)
Length of Visible Light 12h 00m
Length of Day
11h 10m
Waning Gibbous, 86% of the Moon is Illuminated
Oct 22
Waning Gibbous
Oct 26
Last Quarter
Nov 3
New
Nov 9
First Quarter
Nov 17
Full

Hourly Weather History & Observations

Time (CDT) Temp. Dew Point Humidity Pressure Visibility Wind Dir Wind Speed Gust Speed Precip Events Conditions
12:40 AM 57.2 °F 51.8 °F 82% 30.10 in 10.0 mi North 10.4 mph - N/A   Overcast
12:53 AM 57.9 °F 52.0 °F 81% 30.09 in 10.0 mi North 10.4 mph - N/A   Overcast
1:53 AM 57.0 °F 52.0 °F 83% 30.09 in 10.0 mi North 11.5 mph - N/A   Overcast
2:53 AM 55.9 °F 51.1 °F 84% 30.11 in 10.0 mi NNW 9.2 mph - N/A   Overcast
3:30 AM 55.4 °F 50.0 °F 82% 30.11 in 10.0 mi North 8.1 mph - N/A   Overcast
3:53 AM 54.0 °F 50.0 °F 86% 30.11 in 10.0 mi North 9.2 mph - N/A   Overcast
4:40 AM 51.8 °F 46.4 °F 82% 30.12 in 10.0 mi North 9.2 mph - N/A   Mostly Cloudy
4:50 AM 51.8 °F 46.4 °F 82% 30.12 in 10.0 mi North 8.1 mph - N/A   Scattered Clouds
4:53 AM 51.1 °F 46.9 °F 86% 30.12 in 10.0 mi North 8.1 mph - N/A   Scattered Clouds
5:53 AM 50.0 °F 46.9 °F 89% 30.12 in 10.0 mi North 5.8 mph - N/A   Clear
6:53 AM 48.9 °F 45.0 °F 86% 30.13 in 10.0 mi NNW 9.2 mph - N/A   Clear
7:53 AM 48.0 °F 44.1 °F 86% 30.14 in 9.0 mi NNW 8.1 mph - N/A   Clear
8:53 AM 52.0 °F 43.0 °F 71% 30.16 in 10.0 mi NNW 5.8 mph - N/A   Clear
9:53 AM 57.0 °F 44.1 °F 62% 30.17 in 10.0 mi North 6.9 mph - N/A   Clear
10:53 AM 62.1 °F 41.0 °F 46% 30.18 in 10.0 mi NNW 9.2 mph - N/A   Clear
11:53 AM 66.0 °F 37.9 °F 36% 30.17 in 10.0 mi NNW 8.1 mph - N/A   Clear
12:53 PM 69.1 °F 37.0 °F 31% 30.14 in 10.0 mi Variable 5.8 mph - N/A   Clear
1:53 PM 71.1 °F 39.0 °F 31% 30.11 in 10.0 mi NNW 9.2 mph - N/A   Clear
2:53 PM 73.9 °F 37.9 °F 27% 30.09 in 10.0 mi Variable 5.8 mph - N/A   Clear
3:53 PM 73.9 °F 39.0 °F 28% 30.08 in 6.0 mi WNW 4.6 mph - N/A   Haze
4:53 PM 75.0 °F 39.0 °F 27% 30.07 in 5.0 mi NW 4.6 mph - N/A   Haze
5:53 PM 73.0 °F 41.0 °F 31% 30.06 in 4.0 mi West 5.8 mph - N/A   Haze
6:53 PM 66.9 °F 46.0 °F 47% 30.06 in 10.0 mi SSW 4.6 mph - N/A   Clear
7:53 PM 63.0 °F 45.0 °F 52% 30.07 in 10.0 mi SW 5.8 mph - N/A   Clear
8:53 PM 61.0 °F 45.0 °F 56% 30.08 in 10.0 mi SW 4.6 mph - N/A   Clear
9:53 PM 57.9 °F 46.0 °F 65% 30.08 in 10.0 mi SW 5.8 mph - N/A   Clear
10:53 PM 55.9 °F 46.9 °F 72% 30.09 in 10.0 mi SW 6.9 mph - N/A   Clear
11:53 PM 55.9 °F 46.9 °F 72% 30.10 in 10.0 mi SW 6.9 mph - N/A   Clear